Canon City Fremont County, CO

8:02 AM MDT on May 24, 2018 (GMT -0600)
Canon City Fremont County

Weather History for K1V6 - December, 2014

Change the Weather History Date:

Sunday, December 21, 2014

  Actual Average (KFCS) Record (KFCS)
Temperature  
Mean Temperature 44 °F -  
Max Temperature 55 °F 43 °F 63 °F (1982)
Min Temperature 32 °F 19 °F -13 °F (1983)
Degree Days  
Heating Degree Days 22    
Moisture  
Dew Point 24 °F    
Average Humidity 47    
Maximum Humidity 76    
Minimum Humidity 26    
Precipitation  
Precipitation 0.00 in - - ()
Sea Level Pressure  
Sea Level Pressure 29.69 in    
Wind  
Wind Speed 14 mph (WNW)    
Max Wind Speed 37 mph    
Max Gust Speed 46 mph    
Visibility 10 miles    
Events Rain    
Averages and records for this station are not official NWS values.
T = Trace of Precipitation, MM = Missing Value Source: NWS Daily Summary

Daily Weather History Graph

Daily Weather History Graph

Search for Another Location

Airport or City:

Astronomy

Dec. 21, 2014 Rise Set
Actual Time 7:14 AM MST 4:43 PM MST
Civil Twilight 6:44 AM MST 5:12 PM MST
Nautical Twilight 6:11 AM MST 5:46 PM MST
Astronomical Twilight 5:38 AM MST 6:18 PM MST
Moon 6:33 AM MST (12/21) 4:51 PM MST (12/21)
Length of Visible Light 10h 28m
Length of Day
9h 29m
Waning Crescent, 0% of the Moon is Illuminated
Dec 21
Waning Crescent
Dec 21
New
Dec 28
First Quarter
Jan 4
Full
Jan 13
Last Quarter

Hourly Weather History & Observations

Time (MST) Temp. Windchill Dew Point Humidity Pressure Visibility Wind Dir Wind Speed Gust Speed Precip Events Conditions
12:15 AM 35.6 °F - 21.2 °F 56% 29.91 in 10.0 mi Calm Calm - N/A   Clear
12:35 AM 35.6 °F 29.2 °F 19.4 °F 52% 29.89 in 10.0 mi NW 8.1 mph - N/A   Clear
12:55 AM 37.4 °F 30.3 °F 19.4 °F 48% 29.89 in 10.0 mi NW 10.4 mph - N/A   Clear
1:15 AM 39.2 °F 31.6 °F 21.2 °F 49% 29.88 in 10.0 mi WNW 12.7 mph - N/A   Clear
1:35 AM 35.6 °F 31.7 °F 19.4 °F 52% 29.89 in 10.0 mi West 4.6 mph - N/A   Clear
1:55 AM 32.0 °F 27.5 °F 19.4 °F 60% 29.89 in 10.0 mi West 4.6 mph - N/A   Clear
2:15 AM 32.0 °F 24.8 °F 17.6 °F 55% 29.89 in 10.0 mi West 8.1 mph - N/A   Clear
2:35 AM 32.0 °F 24.2 °F 19.4 °F 60% 29.89 in 10.0 mi West 9.2 mph - N/A   Clear
2:55 AM 32.0 °F 24.2 °F 17.6 °F 55% 29.88 in 10.0 mi West 9.2 mph - N/A   Clear
3:15 AM 32.0 °F 24.2 °F 19.4 °F 60% 29.88 in 10.0 mi West 9.2 mph - N/A   Clear
3:35 AM 35.6 °F 28.0 °F 19.4 °F 52% 29.86 in 10.0 mi West 10.4 mph - N/A   Clear
3:55 AM 32.0 °F 24.2 °F 19.4 °F 60% 29.84 in 10.0 mi West 9.2 mph - N/A   Clear
4:15 AM 32.0 °F 23.6 °F 19.4 °F 60% 29.83 in 10.0 mi NW 10.4 mph - N/A   Clear
4:35 AM 32.0 °F 26.4 °F 19.4 °F 60% 29.83 in 10.0 mi WSW 5.8 mph - N/A   Clear
4:55 AM 33.8 °F 28.6 °F 19.4 °F 56% 29.82 in 10.0 mi WSW 5.8 mph - N/A   Clear
5:15 AM 33.8 °F 28.6 °F 19.4 °F 56% 29.82 in 10.0 mi West 5.8 mph - N/A   Clear
5:35 AM 32.0 °F 26.4 °F 19.4 °F 60% 29.81 in 10.0 mi West 5.8 mph - N/A   Clear
5:55 AM 33.8 °F 28.6 °F 19.4 °F 56% 29.79 in 10.0 mi WSW 5.8 mph - N/A   Clear
6:15 AM 33.8 °F 25.3 °F 17.6 °F 52% 29.79 in 10.0 mi WNW 11.5 mph - N/A   Clear
6:25 AM 33.8 °F 27.7 °F 19.4 °F 56% 29.80 in 10.0 mi West 6.9 mph - N/A   Clear
11:15 AM 53.6 °F - 19.4 °F 26% 29.65 in 10.0 mi West 21.9 mph 28.8 mph N/A   Clear
11:35 AM 53.6 °F - 21.2 °F 28% 29.64 in 10.0 mi West 26.5 mph 32.2 mph N/A   Clear
11:55 AM 55.4 °F - 21.2 °F 26% 29.60 in 10.0 mi West 24.2 mph 28.8 mph N/A   Clear
12:15 PM 55.4 °F - 21.2 °F 26% 29.59 in 10.0 mi West 33.4 mph 41.4 mph N/A   Clear
12:35 PM 55.4 °F - 21.2 °F 26% 29.60 in 10.0 mi WNW 26.5 mph 42.6 mph N/A   Clear
12:55 PM 55.4 °F - 21.2 °F 26% 29.60 in 10.0 mi West 21.9 mph 32.2 mph N/A   Clear
1:15 PM 55.4 °F - 21.2 °F 26% 29.59 in 10.0 mi West 29.9 mph 41.4 mph N/A   Clear
1:35 PM 55.4 °F - 21.2 °F 26% 29.58 in 10.0 mi West 29.9 mph 40.3 mph N/A   Clear
1:55 PM 55.4 °F - 21.2 °F 26% 29.57 in 10.0 mi West 33.4 mph 41.4 mph N/A   Clear
2:15 PM 55.4 °F - 23.0 °F 29% 29.56 in 10.0 mi West 36.8 mph 42.6 mph N/A   Clear
2:35 PM 55.4 °F - 23.0 °F 29% 29.57 in 10.0 mi West 35.7 mph 44.9 mph N/A   Clear
2:55 PM 55.4 °F - 23.0 °F 29% 29.56 in 10.0 mi West 36.8 mph 46.0 mph N/A   Clear
3:15 PM 55.4 °F - 23.0 °F 29% 29.56 in 10.0 mi West 35.7 mph 43.7 mph N/A   Clear
3:35 PM 53.6 °F - 23.0 °F 30% 29.57 in 10.0 mi West 28.8 mph 44.9 mph N/A   Clear
3:55 PM 53.6 °F - 23.0 °F 30% 29.56 in 10.0 mi West 27.6 mph 39.1 mph N/A   Clear
4:15 PM 51.8 °F - 23.0 °F 33% 29.57 in 10.0 mi West 26.5 mph 40.3 mph N/A   Clear
4:35 PM 51.8 °F - 23.0 °F 33% 29.57 in 10.0 mi West 33.4 mph 44.9 mph N/A   Clear
4:55 PM 51.8 °F - 24.8 °F 35% 29.57 in 10.0 mi WNW 32.2 mph 40.3 mph N/A   Clear
5:15 PM 50.0 °F - 26.6 °F 40% 29.59 in 10.0 mi WNW 25.3 mph 35.7 mph N/A   Clear
5:35 PM 50.0 °F - 26.6 °F 40% 29.60 in 10.0 mi WNW 24.2 mph 29.9 mph N/A   Clear
5:55 PM 48.2 °F - 28.4 °F 46% 29.60 in 10.0 mi WNW 24.2 mph 31.1 mph N/A   Clear
6:15 PM 48.2 °F - 28.4 °F 46% 29.60 in 10.0 mi WNW 25.3 mph 32.2 mph N/A   Clear
6:35 PM 48.2 °F - 28.4 °F 46% 29.60 in 10.0 mi WNW 24.2 mph 33.4 mph N/A   Clear
6:55 PM 46.4 °F 38.5 °F 28.4 °F 50% 29.60 in 10.0 mi WNW 21.9 mph 28.8 mph N/A   Clear
7:15 PM 48.2 °F - 30.2 °F 50% 29.61 in 10.0 mi NW 19.6 mph 25.3 mph N/A   Mostly Cloudy
7:35 PM 48.2 °F - 30.2 °F 50% 29.61 in 10.0 mi NW 18.4 mph 25.3 mph N/A   Mostly Cloudy
7:55 PM 48.2 °F - 30.2 °F 50% 29.61 in 10.0 mi NW 18.4 mph 24.2 mph N/A   Mostly Cloudy
8:15 PM 46.4 °F 39.8 °F 30.2 °F 53% 29.61 in 10.0 mi NW 16.1 mph 23.0 mph N/A   Scattered Clouds
8:35 PM 46.4 °F 39.8 °F 30.2 °F 53% 29.60 in 10.0 mi NW 16.1 mph - N/A   Clear
8:55 PM 46.4 °F 40.4 °F 30.2 °F 53% 29.61 in 10.0 mi NNW 13.8 mph - N/A   Clear
9:15 PM 46.4 °F 40.7 °F 30.2 °F 53% 29.61 in 10.0 mi NW 12.7 mph - N/A   Clear
9:35 PM 46.4 °F 41.1 °F 30.2 °F 53% 29.63 in 10.0 mi NW 11.5 mph - N/A   Clear
9:55 PM 46.4 °F 40.1 °F 30.2 °F 53% 29.63 in 10.0 mi WNW 15.0 mph - N/A   Scattered Clouds
10:15 PM 48.2 °F - 32.0 °F 54% 29.65 in 10.0 mi West 19.6 mph 29.9 mph N/A   Mostly Cloudy
10:35 PM 46.4 °F 38.3 °F 35.6 °F 66% 29.66 in 10.0 mi West 23.0 mph 29.9 mph N/A Rain Rain
10:55 PM 44.6 °F 38.1 °F 35.6 °F 71% 29.67 in 10.0 mi West 13.8 mph - N/A   Light Drizzle
11:15 PM 44.6 °F 40.2 °F 35.6 °F 71% 29.67 in 10.0 mi West 8.1 mph - N/A   Overcast
11:35 PM 42.8 °F 38.6 °F 35.6 °F 76% 29.67 in 10.0 mi WNW 6.9 mph - N/A   Overcast
11:55 PM 42.8 °F 38.0 °F 35.6 °F 76% 29.66 in 10.0 mi NW 8.1 mph - N/A   Overcast